Weather WX

World > North America > United States > North Dakota

Ostby, North Dakota Regional Weather

Lat: 48.62N, Lon: 100.3W
Wx Zone: NDZ004
Warning FLW WEATHER ALERT - (More Info. Click Here) Warning
Feedback

Ostby, ND Regional Weather

Expires:201907171100;;775265
ASUS43 KBIS 171010
RWRND 

NORTH DAKOTA REGIONAL WEATHER ROUNDUP
NATIONAL WEATHER SERVICE BISMARCK ND
500 AM CDT WED JUL 17 2019

NOTE: "FAIR" INDICATES FEW OR NO CLOUDS BELOW 12,000 FEET WITH NO
SIGNIFICANT WEATHER AND/OR OBSTRUCTIONS TO VISIBILITY.



NDZ004>008-012>016-024-026-027-054-171100-
NORTHEAST NORTH DAKOTA
  
CITY           SKY/WX    TMP DP  RH WIND       PRES   REMARKS
GRAND FORKS    CLOUDY    71  62  73 E5        29.80F                  
DEVILS LAKE    LGT RAIN  64  63  94 SE12      29.83F                  
$$
 

SKY/WX - Weather  TMP - Temperature  DP - Dew Point  RH - Relative Humidity
WIND - Wind Direction/Speed PRES - Barometric Pressure VSB - Visibility
WCI - Wind Chill Index E13G22 Wind - East Wind 13 mph/Gusts of 22 mph